• Join FlightAware (Why Join?)
  • Login
  • US Flag 
07:57AM EST


 

Airport Tracker/Info


-or-


 

Live Flight TrackerFlight Track Log ✈ SLQ340 ✈ 29-Jul-2014 ✈ CYQB - CYMX

Flight Track Log - Related Links

Times and Time Zones

All times are in EDT time to prevent confusion due to time zone crossing. See the SLQ340 flight status page for this flight to view local times or setup timezone preferences in your user account.

Time Position Orientation Groundspeed Altitude Reporting Facility
EDT Latitude Longitude Course Direction KTS MPH feet Rate Location/Type
07:44PM 46.7667 -71.4167 229° Southwest 130 150 1,900  Level Montreal Center
07:45PM 46.7667 -71.4833 270° West 140 161 3,900 1,950 Climbing Montreal Center
07:46PM 46.7333 -71.4833 180° South 150 173 5,800 1,900 Climbing Montreal Center
07:47PM 46.6833 -71.5167 205° Southwest 160 184 7,700 1,850 Climbing Montreal Center
07:48PM 46.6667 -71.5500 234° Southwest 160 184 9,500 1,800 Climbing Montreal Center
07:49PM 46.5270 -71.7627 234° Southwest  Level FlightAware Approximate
07:49PM 46.6167 -71.5667 193° South 150 173 11,300  Level Montreal Center
07:50PM 46.4900 -71.8333 229° Southwest  Level FlightAware Approximate
07:50PM 46.6000 -71.6167 244° Southwest 160 184 12,800  Level Montreal Center
07:51PM 46.5667 -71.6667 226° Southwest 160 184 14,100 650 Climbing Montreal Center
07:52PM 46.5333 -71.7500 240° Southwest 170 196 14,100  Level Montreal Center
07:53PM 46.5000 -71.8000 226° Southwest 170 196 14,100  Level Montreal Center
07:54PM 46.4667 -71.8500 226° Southwest 220 253 14,100  Level Montreal Center
07:55PM 46.4167 -71.9333 229° Southwest 230 265 14,100  Level Montreal Center
07:56PM 46.3833 -72.0000 234° Southwest 240 276 14,100  Level Montreal Center
07:57PM 46.3500 -72.0833 240° Southwest 230 265 14,100  Level Montreal Center
07:58PM 46.3167 -72.1500 234° Southwest 240 276 14,100  Level Montreal Center
07:59PM 46.2667 -72.2333 229° Southwest 240 276 14,100  Level Montreal Center
08:00PM 46.2167 -72.3000 223° Southwest 240 276 14,100  Level Montreal Center
08:01PM 46.1833 -72.3833 240° Southwest 240 276 14,100  Level Montreal Center
08:02PM 46.1333 -72.4500 223° Southwest 240 276 14,100 -100 Level Montreal Center
08:03PM 46.0833 -72.5333 229° Southwest 240 276 13,900 -550 Descending Montreal Center
08:04PM 46.0500 -72.6167 240° Southwest 260 299 13,000 -1,000 Descending Montreal Center
08:05PM 46.0000 -72.7167 234° Southwest 270 311 11,900 -950 Descending Montreal Center
08:06PM 45.9667 -72.7833 234° Southwest 270 311 11,100 -1,050 Descending Montreal Center
08:07PM 45.9000 -72.8667 221° Southwest 270 311 9,800 -1,100 Descending Montreal Center
08:08PM 45.8833 -72.9500 254° West 270 311 8,900 -1,000 Descending Montreal Center
08:09PM 45.8667 -73.0833 260° West 260 299 7,800 -1,000 Descending Montreal Center
08:10PM 45.8500 -73.1833 257° West 270 311 6,900 -700 Descending Montreal Center
08:11PM 45.8500 -73.2667 270° West 260 299 6,400 -450 Descending Montreal Center
08:12PM 45.8500 -73.3667 270° West 250 288 6,000 -500 Descending Montreal Center
08:13PM 45.8333 -73.4833 258° West 250 288 5,400 -650 Descending Montreal Center
08:14PM 45.8167 -73.5833 257° West 260 299 4,700 -655 Descending Montreal Center
08:15PM 45.8167 -73.6833 270° West 240 276 4,100 -504 Descending Montreal Center
08:16PM 45.8000 -73.7500 250° West 220 253 3,700 -650 Descending Montreal Center
08:17PM 45.7833 -73.8333 254° West 200 230 2,800 -850 Descending Montreal Center
08:18PM 45.7500 -73.8833 226° Southwest 160 184 2,000 -750 Descending Montreal Center
08:19PM 45.7167 -73.9333 226° Southwest 130 150 1,300 -650 Descending Montreal Center
08:20PM 45.6833 -73.9500 199° South 130 150 700 -500 Descending Montreal Center
08:21PM 45.6833 -74.0000 270° West 100 115 300 -400 Descending Montreal Center